Lufkin, TX

2:35 PM CDT on March 23, 2017 (GMT -0500)
Angelina County

Weather History for KLFK - December, 2011

Change the Weather History Date:

Wednesday, December 28, 2011

  Actual Average Record
Temperature  
Mean Temperature 45 °F 49 °F  
Max Temperature 59 °F 59 °F 82 °F (1907)
Min Temperature 30 °F 38 °F 22 °F (1925)
Degree Days  
Heating Degree Days 20 17  
Month to date heating degree days 407 421  
Since 1 July heating degree days 704 728  
Cooling Degree Days 0 0  
Month to date cooling degree days 3 4  
Year to date cooling degree days 3423 2587  
Moisture  
Dew Point 36 °F    
Average Humidity 72    
Maximum Humidity 92    
Minimum Humidity 51    
Precipitation  
Precipitation 0.00 in 0.13 in 2.09 in (1962)
Month to date precipitation 6.53 4.05  
Year to date precipitation 33.77 48.56  
Snow  
Snow 0.00 in - - ()
Month to date snowfall 0.0  
Since 1 July snowfall 0.0  
Snow Depth 0.00 in    
Sea Level Pressure  
Sea Level Pressure 30.13 in    
Wind  
Wind Speed 4 mph (ESE)    
Max Wind Speed 13 mph    
Max Gust Speed 15 mph    
Visibility 10 miles    
Events      
T = Trace of Precipitation, MM = Missing Value Source: NWS Daily Summary

Daily Weather History Graph

Daily Weather History Graph

Search for Another Location

Airport or City:

Trip Planner

Search our weather history database for the weather conditions in past years. The results will help you decide how hot, cold, wet, or windy it might be!

Date:

Astronomy

Dec. 28, 2011 Rise Set
Actual Time 7:16 AM CST 5:24 PM CST
Civil Twilight 6:49 AM CST 5:51 PM CST
Nautical Twilight 6:19 AM CST 6:21 PM CST
Astronomical Twilight 5:49 AM CST 6:51 PM CST
Moon 9:58 AM CST (12/28) 9:44 PM CST (12/28)
Length of Visible Light 11h 01m
Length of Day
10h 08m
Waxing Crescent, 18% of the Moon is Illuminated
Dec 28
Waxing Crescent
Jan 1
First Quarter
Jan 9
Full
Jan 16
Last Quarter
Jan 23
New

Hourly Weather History & Observations

Time (CST) Temp. Windchill Dew Point Humidity Pressure Visibility Wind Dir Wind Speed Gust Speed Precip Events Conditions
12:53 AM 33.1 °F - 30.0 °F 89% 30.20 in 10.0 mi Calm Calm - N/A   Clear
1:53 AM 32.0 °F 28.7 °F 28.4 °F 87% 30.19 in 10.0 mi ESE 3.5 mph - N/A   Clear
2:53 AM 33.1 °F - 28.9 °F 85% 30.19 in 10.0 mi Calm Calm - N/A   Clear
3:53 AM 32.0 °F - 28.9 °F 88% 30.19 in 10.0 mi Calm Calm - N/A   Clear
4:53 AM 30.9 °F - 28.0 °F 89% 30.17 in 8.0 mi Calm Calm - N/A   Clear
5:53 AM 30.9 °F - 27.0 °F 85% 30.16 in 10.0 mi Calm Calm - N/A   Clear
6:53 AM 30.0 °F - 27.0 °F 88% 30.15 in 10.0 mi Calm Calm - N/A   Clear
7:53 AM 32.0 °F - 28.0 °F 85% 30.18 in 10.0 mi Calm Calm - N/A   Clear
8:53 AM 42.1 °F - 37.0 °F 82% 30.21 in 10.0 mi Calm Calm - N/A   Clear
9:53 AM 45.0 °F 41.8 °F 39.0 °F 80% 30.19 in 10.0 mi SE 5.8 mph - N/A   Clear
10:53 AM 48.9 °F - 39.0 °F 69% 30.19 in 10.0 mi SSE 6.9 mph - N/A   Clear
11:53 AM 53.1 °F - 39.0 °F 59% 30.16 in 10.0 mi SE 9.2 mph - N/A   Clear
12:53 PM 54.0 °F - 37.9 °F 55% 30.12 in 10.0 mi SE 4.6 mph - N/A   Clear
1:53 PM 57.0 °F - 41.0 °F 55% 30.08 in 10.0 mi ESE 8.1 mph - N/A   Clear
2:53 PM 57.9 °F - 39.9 °F 51% 30.06 in 10.0 mi SSE 9.2 mph - N/A   Clear
3:53 PM 59.0 °F - 42.1 °F 53% 30.05 in 10.0 mi SE 9.2 mph - N/A   Clear
4:53 PM 57.0 °F - 43.0 °F 59% 30.06 in 10.0 mi SE 3.5 mph - N/A   Clear
5:53 PM 48.9 °F - 43.0 °F 80% 30.07 in 10.0 mi NNE 4.6 mph - N/A   Clear
6:53 PM 48.0 °F - 41.0 °F 77% 30.08 in 10.0 mi East 5.8 mph - N/A   Clear
7:53 PM 46.9 °F - 39.9 °F 77% 30.07 in 10.0 mi ESE 3.5 mph - N/A   Clear
8:53 PM 45.0 °F 42.6 °F 39.9 °F 82% 30.08 in 10.0 mi East 4.6 mph - N/A   Clear
9:53 PM 46.0 °F 43.1 °F 41.0 °F 83% 30.08 in 10.0 mi ESE 5.8 mph - N/A   Clear
10:53 PM 45.0 °F 43.5 °F 41.0 °F 86% 30.07 in 10.0 mi ESE 3.5 mph - N/A   Clear
11:53 PM 46.0 °F - 42.1 °F 86% 30.07 in 10.0 mi Calm Calm - N/A   Clear